Find Starlink 30401

NORAD ID: 57818 Int'l Des: 2023-138 Owner: SPXS Country: US Constellation: starlink operational
LEOCIRCULAR

当前视图

正在加载3D地球...

About Starlink 30401

Starlink 30401 (NORAD 57818) is a starlink constellation satellite (v2 mini) launched Sep 9, 2023 by SPXS of US. It operates in LEO, CIRCULAR orbit with a mass of 730.00 kg.

即将过境

Passes for default location (London). Set your location on the main map for personalized predictions.

高度历史

Loading altitude history...

两行轨道根数

1 57818U 23138L 26262.29350624 .00000104 00000-0 13321-4 0 9994
2 57818 43.0024 221.1329 0001392 264.1491 95.9203 15.27579112168245
Epoch: Sep 19, 2026 • Age: 38 hours

当前状态

高度 483.0 km
远地点 / 近地点 N/A
速度 7.63 km/s
星下点 -0.53°S, 70.45°E
发射日期 Sep 9, 2023
运行时间 3 years
类型 internet

技术详情

分类 Payload
质量 730.00 kg
干质量 700.00 kg
长度 0.30 m
跨度 29.00 m
形状 ? Box + pan
制造商 SPXS
平台类型 Starlink V2M
阶段状态 In Orbit
所有者/国家 SPXS/US

Most Searched